[[{"header":{"parameterUnit":"m.s-1","parameterCategory":1,"la1":30.2991,"la2":30.254,"lo1":-89.0895,"lo2":-89.0444,"dy":0.0017,"dx":0.0017,"nx":28,"ny":28,"refTime":"2023-09-15T09:00:00:Z","depth":0,"parameterNumber":2,"parameterNumberName":"U-component_of_WINDS"},"data":[0,0,0,0,0,0,0,0,0,0,0,0,0,0,0,0,0,0,0,0,0,0,0,0,0,0,0,0,0,0,0,0,0,0,0,0,0,0,0,0,0,0,0,0,0,0,0,0,0,0,0,0,0,0,0,0,0,0,-1.0118,-1.0118,0,-1.0179,-1.0179,-1.018,-1.0237,-1.0237,-1.0238,-1.0239,-1.0295,-1.0296,-1.0297,0,0,0,0,0,0,0,0,0,0,0,0,0,-1.0045,-1.0046,-1.0118,-1.0118,-1.0119,-1.0179,-1.0179,-1.018,-1.0237,-1.0237,-1.0238,-1.0239,-1.0295,-1.0296,-1.0297,0,0,0,0,0,0,0,0,0,0,0,0,0,-1.0088,-1.0047,-1.0118,-1.0155,-1.0159,-1.0178,-1.0179,-1.018,-1.0236,-1.0237,-1.0239,-1.024,-1.0295,-1.0296,-1.0297,-1.0283,0,0,-1.0301,-1.0302,0,0,0,0,0,0,0,0,-1.0086,-1.0091,-1.0148,-1.0152,-1.0157,-1.0201,-1.0175,-1.0215,-1.0236,-1.0207,-1.0239,-1.024,-1.0263,-1.0267,-1.0276,-1.0286,-1.0288,-1.0301,-1.0302,-1.0302,-1.0303,0,0,0,0,0,0,0,-1.0083,-1.0089,-1.0142,-1.0149,-1.0154,-1.0167,-1.0174,-1.0183,-1.0228,-1.0209,-1.0214,-1.022,-1.0265,-1.0274,-1.0277,-1.0289,-1.0301,-1.0302,-1.0303,-1.0303,-1.0291,-1.029,0,0,0,0,0,0,-1.0075,-1.0086,-1.014,-1.0144,-1.0123,-1.0167,-1.0175,-1.0186,-1.0228,-1.0235,-1.0219,-1.0223,-1.0272,-1.0276,-1.0279,-1.0265,-1.0302,-1.0304,-1.0304,-1.0292,-1.029,-1.0289,0,0,0,0,0,0,-1.0073,-1.0079,-1.0137,-1.0116,-1.0124,-1.0167,-1.0179,-1.0186,-1.0196,-1.0236,-1.0243,-1.0221,-1.0273,-1.0278,-1.0282,-1.0268,-1.0304,-1.0305,-1.0293,-1.0291,-1.029,-1.0236,0,0,0,0,0,0,-1.0071,-1.0078,-1.0074,-1.0115,-1.0125,-1.014,-1.0178,-1.0187,-1.0198,-1.0203,-1.0239,-1.0246,-1.0274,-1.028,-1.0283,-1.027,-1.0306,-1.0294,-1.0292,-1.029,-1.0239,-1.0232,-1.0227,0,0,0,0,0,-1.0068,-1.0056,-1.0074,-1.008,-1.0122,-1.0139,-1.0145,-1.0179,-1.0197,-1.0192,-1.0218,-1.0244,-1.027,-1.028,-1.0284,-1.0271,-1.0295,-1.0293,-1.029,-1.0242,-1.0234,-1.0227,0,0,0,0,0,0,-1.0009,-1.0062,-1.0082,-1.0083,-1.0107,-1.0149,-1.0144,-1.017,-1.0187,-1.019,-1.0231,-1.0238,-1.0238,-1.0255,-1.0266,-1.026,-1.0286,-1.0284,-1.0247,-1.024,-1.0234,-1.0228,-1.0307,0,0,0,0,0,-0.9997,-1.0008,-1.0053,-1.0049,-1.006,-1.01,-1.0109,-1.0134,-1.0159,-1.0168,-1.0195,-1.0216,-1.0229,-1.0236,-1.025,-1.0243,-1.025,-1.0236,-1.023,-1.0225,-1.0222,-1.0218,-1.0211,-1.0281,-1.0281,-1.0281,0,0,-0.997,-1.0,-1.0004,-1.0038,-1.0059,-1.0068,-1.0108,-1.0116,-1.0123,-1.0169,-1.0175,-1.0195,-1.0222,-1.022,-1.0221,-1.0235,-1.0205,-1.0222,-1.0218,-1.0217,-1.0215,-1.0208,-1.0202,-1.0279,-1.028,-1.028,0,0,-0.9925,-0.9951,-0.995,-0.9971,-1.0003,-1.003,-1.003,-1.0069,-1.0085,-1.0092,-1.0127,-1.0135,-1.0156,-1.0174,-1.0185,-1.015,-1.0173,-1.0153,-1.012,-1.0116,-1.011,-1.0105,-1.009,-1.0084,-1.0151,-1.0151,-1.0151,0,-0.9887,-0.9904,-0.9946,-0.9952,-0.9965,-1.0011,-1.0009,-1.0027,-1.0061,-1.0068,-1.0085,-1.0113,-1.0134,-1.0136,-1.0128,-1.0137,-1.0136,-1.0147,-1.0108,-1.0104,-1.01,-1.0085,-1.008,-1.0148,-1.0148,-1.0148,-1.0149,0,-0.9855,-0.9866,-0.9861,-0.9895,-0.9909,-0.9911,-0.9951,-0.9959,-0.9983,-1.0008,-1.0014,-1.0042,-1.0062,-1.0065,-1.0089,-1.0071,-1.0078,-1.0101,-1.0128,-1.009,-1.0077,-1.0072,-1.0144,-1.0145,-1.0145,-1.0146,0,0,-0.977,-0.983,-0.9827,-0.9843,-0.9883,-0.9892,-0.9896,-0.9918,-0.9923,-0.9946,-0.9948,-0.9967,-0.9988,-1.0001,-1.0028,-1.0024,-0.9991,-1.0047,-1.0048,-1.0033,-0.9971,-0.995,-0.9944,-1.0009,-1.0009,-1.0008,-0.9967,0,-0.973,-0.9742,-0.978,-0.9779,-0.9789,-0.9834,-0.9838,-0.9861,-0.9885,-0.9896,-0.9922,-0.9933,-0.9963,-0.9971,-0.997,-0.9995,-0.9979,-1.0,-1.0009,-1.0009,-0.9997,-0.9937,-0.9916,-0.9876,-0.9963,-0.9962,-0.9962,0,-0.9683,-0.9705,-0.9706,-0.9746,-0.9752,-0.9754,-0.9777,-0.9788,-0.9816,-0.9834,-0.985,-0.988,-0.9885,-0.9913,-0.9919,-0.9932,-0.9939,-0.9953,-0.9952,-0.9951,-0.998,-0.9931,-0.9865,-0.9857,-0.9955,-0.9955,-0.9956,0,-0.9618,-0.9648,-0.9652,-0.9665,-0.9713,-0.9713,-0.9733,-0.9762,-0.9773,-0.9793,-0.98,-0.982,-0.983,-0.9844,-0.9877,-0.9895,-0.9879,-0.991,-0.9891,-0.989,-0.9882,-0.9881,-0.9812,-0.9893,-0.9893,-0.9893,-0.9893,0,-0.9567,-0.9564,-0.9624,-0.9625,-0.9624,-0.9669,-0.9665,-0.9689,-0.9715,-0.9721,-0.9762,-0.9766,-0.9813,-0.9822,-0.9849,-0.9849,-0.9854,-0.9866,-0.9872,-0.986,-0.9858,-0.9862,-0.9864,-0.9891,-0.9892,-0.9892,-0.9892,0,-0.9491,-0.9532,-0.9538,-0.9585,-0.9596,-0.9592,-0.9631,-0.9634,-0.9662,-0.9669,-0.9673,-0.9716,-0.9729,-0.9766,-0.9788,-0.9806,-0.9796,-0.9811,-0.9787,-0.979,-0.9768,-0.9768,-0.9695,-0.9686,-0.9776,-0.9775,-0.9775,0,-0.9453,-0.9453,-0.95,-0.9508,-0.9527,-0.9539,-0.9551,-0.9595,-0.9606,-0.9639,-0.9637,-0.9654,-0.9669,-0.9688,-0.9719,-0.9737,-0.9749,-0.9723,-0.9752,-0.9739,-0.9745,-0.9743,-0.9741,-0.9715,-0.9714,-0.9713,-0.9712,0,-0.9381,-0.9402,-0.9418,-0.9442,-0.9456,-0.9476,-0.9498,-0.9502,-0.9552,-0.9561,-0.9576,-0.9589,-0.9613,-0.9628,-0.965,-0.9669,-0.9697,-0.9704,-0.9699,-0.9684,-0.9669,-0.9674,-0.9765,-0.9704,-0.9705,-0.9705,-0.9706,-0.9706,-0.9321,-0.9322,-0.9356,-0.9373,-0.9395,-0.9416,-0.942,-0.945,-0.9464,-0.9488,-0.9514,-0.9526,-0.9554,-0.9588,-0.9604,-0.9613,-0.9628,-0.9623,-0.9621,-0.9617,-0.961,-0.9672,-0.9618,-0.9618,-0.9618,-0.9618,-0.9619,0,-0.9247,-0.9272,-0.9288,-0.9319,-0.9332,-0.9363,-0.939,-0.9397,-0.9408,-0.9434,-0.9449,-0.9466,-0.9482,-0.9516,-0.9534,-0.9534,-0.9548,-0.9537,-0.9535,-0.9538,-0.9597,-0.9598,-0.9526,-0.9526,-0.9526,-0.9526,-0.9526,-0.9526,-0.921,-0.9213,-0.9238,-0.9253,-0.9278,-0.9291,-0.9303,-0.9322,-0.9342,-0.936,-0.9374,-0.9398,-0.9426,-0.9448,-0.9463,-0.9472,-0.9475,-0.9459,-0.9473,-0.9526,-0.9534,-0.9543,-0.9543,-0.9461,-0.9461,-0.9413,-0.9412,-0.9412]},{"header":{"parameterUnit":"m.s-1","parameterCategory":1,"la1":30.2991,"la2":30.254,"lo1":-89.0895,"lo2":-89.0444,"dy":0.0017,"dx":0.0017,"nx":28,"ny":28,"refTime":"2023-09-15T09:00:00:Z","depth":0,"parameterNumber":3,"parameterNumberName":"V-component_of_WINDS"},"data":[0,0,0,0,0,0,0,0,0,0,0,0,0,0,0,0,0,0,0,0,0,0,0,0,0,0,0,0,0,0,0,0,0,0,0,0,0,0,0,0,0,0,0,0,0,0,0,0,0,0,0,0,0,0,0,0,0,0,-1.715,-1.7151,0,-1.7206,-1.7206,-1.7207,-1.7245,-1.7245,-1.7245,-1.7245,-1.7301,-1.7303,-1.7304,0,0,0,0,0,0,0,0,0,0,0,0,0,-1.7077,-1.7078,-1.715,-1.7151,-1.7152,-1.7205,-1.7206,-1.7207,-1.7245,-1.7245,-1.7245,-1.7246,-1.7301,-1.7302,-1.7304,0,0,0,0,0,0,0,0,0,0,0,0,0,-1.7118,-1.7078,-1.715,-1.7177,-1.718,-1.7205,-1.7206,-1.7207,-1.7244,-1.7245,-1.7245,-1.7246,-1.73,-1.7302,-1.7304,-1.7307,0,0,-1.731,-1.731,0,0,0,0,0,0,0,0,-1.7116,-1.7121,-1.7172,-1.7175,-1.7178,-1.7219,-1.7201,-1.7241,-1.7244,-1.722,-1.7245,-1.7246,-1.7273,-1.7278,-1.7287,-1.731,-1.7312,-1.731,-1.7311,-1.7312,-1.7312,0,0,0,0,0,0,0,-1.7113,-1.7119,-1.7172,-1.7173,-1.7177,-1.7186,-1.7192,-1.7209,-1.7244,-1.7222,-1.7225,-1.7231,-1.7275,-1.7285,-1.7289,-1.7313,-1.731,-1.7311,-1.7313,-1.7313,-1.7341,-1.734,0,0,0,0,0,0,-1.7106,-1.7116,-1.717,-1.7174,-1.7148,-1.7187,-1.7194,-1.7205,-1.7244,-1.725,-1.7231,-1.7233,-1.7282,-1.7286,-1.7291,-1.7296,-1.7312,-1.7313,-1.7315,-1.7341,-1.7341,-1.734,0,0,0,0,0,0,-1.7104,-1.711,-1.7168,-1.7146,-1.7154,-1.7188,-1.72,-1.7206,-1.7216,-1.725,-1.7256,-1.7234,-1.7282,-1.7288,-1.7303,-1.7299,-1.7314,-1.7316,-1.7342,-1.7341,-1.7341,-1.7308,0,0,0,0,0,0,-1.7102,-1.7109,-1.7111,-1.7145,-1.7155,-1.7179,-1.72,-1.7207,-1.7219,-1.7222,-1.7255,-1.7261,-1.7283,-1.73,-1.7304,-1.7302,-1.7317,-1.7342,-1.7341,-1.7341,-1.7309,-1.7306,-1.7303,0,0,0,0,0,-1.7099,-1.71,-1.7111,-1.7117,-1.7158,-1.7179,-1.7184,-1.721,-1.7219,-1.722,-1.7242,-1.726,-1.7299,-1.7301,-1.7307,-1.7304,-1.7342,-1.7342,-1.7341,-1.7311,-1.7307,-1.7303,0,0,0,0,0,0,-1.7063,-1.7105,-1.7118,-1.7129,-1.715,-1.7185,-1.7188,-1.7205,-1.7224,-1.7226,-1.7257,-1.7264,-1.7275,-1.7291,-1.7293,-1.7309,-1.7323,-1.7323,-1.7298,-1.7294,-1.7292,-1.7287,-1.7319,0,0,0,0,0,-1.7057,-1.7071,-1.7106,-1.7113,-1.7123,-1.7154,-1.7164,-1.7182,-1.7205,-1.7214,-1.7237,-1.7258,-1.7276,-1.7286,-1.7304,-1.7312,-1.732,-1.7313,-1.731,-1.7308,-1.7307,-1.7313,-1.731,-1.7338,-1.7338,-1.7338,0,0,-1.7044,-1.7068,-1.7075,-1.7107,-1.7125,-1.7139,-1.7161,-1.7175,-1.7185,-1.7216,-1.7231,-1.7249,-1.7275,-1.7286,-1.7293,-1.73,-1.7302,-1.7307,-1.7304,-1.7305,-1.7312,-1.7309,-1.7307,-1.7337,-1.7337,-1.7337,0,0,-1.7026,-1.7046,-1.7054,-1.7072,-1.71,-1.712,-1.7122,-1.7155,-1.7168,-1.7183,-1.7207,-1.722,-1.7249,-1.7266,-1.7279,-1.7268,-1.7285,-1.7273,-1.7257,-1.7262,-1.726,-1.7258,-1.7254,-1.7252,-1.7273,-1.7273,-1.7273,0,-1.7006,-1.7028,-1.7056,-1.7068,-1.7081,-1.711,-1.7118,-1.7134,-1.7166,-1.7174,-1.7183,-1.722,-1.7239,-1.7255,-1.7252,-1.7262,-1.7265,-1.7269,-1.7258,-1.7257,-1.7256,-1.7252,-1.725,-1.7271,-1.7271,-1.7272,-1.7272,0,-1.7001,-1.7016,-1.7019,-1.7049,-1.7063,-1.7072,-1.7102,-1.7112,-1.7129,-1.7148,-1.7164,-1.7189,-1.7212,-1.7217,-1.7234,-1.7235,-1.7239,-1.7253,-1.7267,-1.7251,-1.7248,-1.7246,-1.7269,-1.7269,-1.727,-1.727,0,0,-1.6962,-1.7008,-1.7008,-1.7022,-1.7055,-1.7067,-1.7078,-1.7101,-1.7109,-1.713,-1.714,-1.7164,-1.7177,-1.7191,-1.721,-1.7215,-1.7204,-1.7227,-1.7229,-1.7221,-1.7207,-1.7195,-1.7193,-1.7216,-1.7216,-1.7215,-1.7204,0,-1.6949,-1.697,-1.6996,-1.7009,-1.7022,-1.7051,-1.706,-1.7082,-1.71,-1.7115,-1.7136,-1.7152,-1.7168,-1.7176,-1.7182,-1.7204,-1.7201,-1.7205,-1.7225,-1.7225,-1.7216,-1.7192,-1.718,-1.7168,-1.7203,-1.7203,-1.7203,0,-1.6936,-1.6956,-1.6969,-1.7001,-1.7008,-1.7016,-1.7039,-1.7053,-1.7077,-1.7091,-1.7107,-1.7127,-1.7141,-1.7154,-1.7172,-1.7174,-1.7184,-1.7196,-1.7196,-1.7198,-1.7212,-1.7192,-1.7165,-1.7162,-1.7201,-1.7201,-1.7201,0,-1.6904,-1.6935,-1.6947,-1.6958,-1.6996,-1.7001,-1.7017,-1.7042,-1.7054,-1.7074,-1.7082,-1.7103,-1.7115,-1.7131,-1.7157,-1.7164,-1.7172,-1.7188,-1.7183,-1.7182,-1.7182,-1.7182,-1.7155,-1.719,-1.719,-1.719,-1.719,0,-1.6886,-1.6893,-1.6933,-1.6941,-1.695,-1.6979,-1.6987,-1.7006,-1.7028,-1.7039,-1.7066,-1.7076,-1.711,-1.7124,-1.7144,-1.7156,-1.7161,-1.7172,-1.7177,-1.7169,-1.7168,-1.7175,-1.7176,-1.719,-1.719,-1.719,-1.719,0,-1.6852,-1.6879,-1.6894,-1.6929,-1.6938,-1.6942,-1.6972,-1.698,-1.7001,-1.7015,-1.702,-1.7052,-1.707,-1.7098,-1.7124,-1.7138,-1.7146,-1.7155,-1.7137,-1.714,-1.7134,-1.7133,-1.711,-1.7108,-1.7145,-1.7145,-1.7145,0,-1.6838,-1.6844,-1.6879,-1.6889,-1.6904,-1.6919,-1.6931,-1.6961,-1.6973,-1.7002,-1.7006,-1.7026,-1.7044,-1.7071,-1.7097,-1.7117,-1.7127,-1.7117,-1.713,-1.7121,-1.7125,-1.7124,-1.7125,-1.7114,-1.7113,-1.7113,-1.7112,0,-1.681,-1.6823,-1.684,-1.6861,-1.6875,-1.6894,-1.6913,-1.692,-1.6954,-1.6966,-1.6985,-1.6998,-1.7025,-1.7045,-1.7069,-1.7085,-1.7104,-1.7108,-1.7108,-1.7099,-1.7088,-1.7093,-1.7128,-1.7108,-1.7109,-1.7109,-1.7109,-1.7109,-1.6785,-1.6791,-1.6817,-1.6835,-1.6853,-1.6871,-1.688,-1.6902,-1.6918,-1.6942,-1.6959,-1.6976,-1.7002,-1.7036,-1.7051,-1.7065,-1.7074,-1.7074,-1.7073,-1.7073,-1.7069,-1.7087,-1.707,-1.707,-1.707,-1.7071,-1.7071,0,-1.6757,-1.6775,-1.6791,-1.6818,-1.6832,-1.6849,-1.6872,-1.6882,-1.6897,-1.6919,-1.6936,-1.6957,-1.6977,-1.7004,-1.7025,-1.7032,-1.7041,-1.7036,-1.7035,-1.7039,-1.7061,-1.7059,-1.7028,-1.7028,-1.7028,-1.7028,-1.7028,-1.7028,-1.6744,-1.6756,-1.6772,-1.6793,-1.6812,-1.6829,-1.684,-1.6857,-1.6874,-1.6897,-1.6913,-1.6931,-1.6955,-1.6978,-1.6997,-1.7004,-1.7011,-1.7003,-1.7013,-1.7033,-1.7037,-1.7041,-1.7038,-1.7004,-1.7004,-1.6989,-1.6989,-1.6989]}]]